This is the latest recevied weather packets stored in our database for station/object N8QF. If no packets are shown the sender has not sent any weather packets the latest 1 day(s).
| Time | Temp. | Humidity | Pressure | Rain* | Wind** | Luminosity | Snow |
|---|---|---|---|---|---|---|---|
| 1778056992 | 7.78° C | 94% | 1007.4 hPa | 11.68 mm | - | - | - |
| 1778056691 | 7.22° C | 94% | 1007.7 hPa | 11.68 mm | - | - | - |
| 1778055790 | 7.22° C | 94% | 1007.4 hPa | 11.68 mm | - | - | - |
| 1778055490 | 7.22° C | 94% | 1007.2 hPa | 11.68 mm | - | - | - |
| 1778054289 | 7.78° C | 95% | 1007.1 hPa | 11.43 mm | - | - | - |
| 1778053688 | 7.78° C | 94% | 1007.3 hPa | 11.18 mm | - | - | - |
| 1778053388 | 7.78° C | 95% | 1007.5 hPa | 11.18 mm | - | - | - |
| 1778052487 | 7.78° C | 94% | 1007.3 hPa | 10.92 mm | - | - | - |
| 1778052187 | 8.33° C | 95% | 1007.2 hPa | 10.67 mm | - | - | - |
| 1778051286 | 8.89° C | 95% | 1007.1 hPa | 9.65 mm | - | - | - |
| 1778050986 | 8.89° C | 95% | 1007.1 hPa | 9.4 mm | - | - | - |
| 1778050686 | 8.89° C | 95% | 1007 hPa | 9.4 mm | - | - | - |
| 1778050085 | 8.89° C | 95% | 1006.8 hPa | 9.14 mm | - | - | - |
| 1778049785 | 8.89° C | 95% | 1006.7 hPa | 9.14 mm | - | - | - |
| 1778049485 | 8.89° C | 95% | 1006.6 hPa | 9.14 mm | - | - | - |
| 1778048584 | 8.89° C | 95% | 1006.2 hPa | 8.89 mm | - | - | - |
| 1778048284 | 8.89° C | 95% | 1006.2 hPa | 8.89 mm | - | - | - |
| 1778047083 | 8.89° C | 95% | 1006.4 hPa | 7.87 mm | - | - | - |
| 1778046781 | 8.89° C | 95% | 1006.4 hPa | 7.87 mm | - | - | - |
| 1778046481 | 8.89° C | 95% | 1006.3 hPa | 7.62 mm | - | - | - |
| 1778045880 | 8.89° C | 95% | 1006.6 hPa | 7.11 mm | - | - | - |
| 1778045580 | 8.89° C | 95% | 1006.5 hPa | 6.86 mm | - | - | - |
| 1778045280 | 8.89° C | 95% | 1006.3 hPa | 6.6 mm | - | - | - |
| 1778044079 | 10° C | 95% | 1006.2 hPa | 4.83 mm | - | - | - |
| 1778043478 | 10.56° C | 95% | 1006.3 hPa | 3.3 mm | - | - | - |
* Rain since midnight (hover to see other rain measurements)
** Current wind speed in m/s (hover to see current wind gust speed)